IRIDIUM 42 [-] (25077 NORAD) Tracking and Keplerian Element Data

This shows tracking and keplerian element data for the satellite.

Feedback or suggestion? Click here.




ElementValue
Catalog25077
NameIRIDIUM 42 [-]
Epoch Orbit9679
Epoch Day323.62206688
Epoch Year2018
RAAN164.3356
Inclination86.3971
Eccentricity0.000237
Argument of Perigee78.5564
Mean Anonmoly281.5898
Mean Motion14.34534649
Decay Rate1.25E-06
L11 25077U 97077A 18323.62206688 .00000125 00000-0 37397-4 0 9997
L22 25077 86.3971 164.3356 0002370 78.5564 281.5898 14.34534649 96797

Live tracking and technical data element details for IRIDIUM 42 [-] (NORAD 25077). IRIDIUM 42 [-] can be tracked NOW for your location showing map with azimuth and elevation plus other details from your city location.

Track the satellite on the map from your city or location and see movement details for azimuth, elevation, latitude, longitude, range, height, and movement on the map or in text.







IsCatalogInMostPopularTable: catalog: 25077, numindb: 44
Update: records affected: 1



GetName: 25077 IRIDIUM 42 [-]

Hit Count: updated at: Wed, 21 Nov 2018 06:27:43 GMT